Regional Weather Roundup
Issued by NWS Charleston, SC

Current Version | Previous Version | Graphics & Text | Print | Product List | Glossary On
Versions: 1 2 3 4 5 6 7 8 9 10 11 12 13 14 15 16 17 18 19 20 21 22 23 24 25 26 27 28 29 30 31 32 33 34 35 36 37 38 39 40 41 42 43 44 45 46 47 48 49 50
000 ASUS42 KCHS 020525 RWRCHS REGIONAL WEATHER ROUNDUP NATIONAL WEATHER SERVICE CHARLESTON SC 100 AM EDT SAT AUG 02 2014 NOTE: "FAIR" INDICATES FEW OR NO CLOUDS BELOW 12,000 FEET WITH NO SIGNIFICANT WEATHER AND/OR OBSTRUCTIONS TO VISIBILITY. NOT ALL STATIONS ARE QUALITY CONTROLLED BY THE NATIONAL WEATHER SERVICE. USE DATA WITH CAUTION...ESPECIALLY DEWPOINT OBSERVATIONS. SCZ027-030-031-034>040-042>050-020600- ...SOUTH CAROLINA... CITY SKY/WX TMP DP RH WIND PRES REMARKS N CHARLESTON MOCLDY 76 73 91 E5 30.02F WATERFRONT PRK N/A 79 N/A N/A NE6 N/A FORT JOHNSON NOT AVBL MOUNT PLEASANT FAIR 73 73 100 CALM 30.02F FOG JOHNS ISLAND PTCLDY 75 70 83 CALM 30.02F PINOPOLIS N/A 81 73 78 NW2 29.96F MONCKS CORNER NOT AVBL SUMMERVILLE FAIR 73 73 100 CALM 30.03S BEAUFORT MCAS CLOUDY 78 74 87 CALM 30.02R BEAUFORT ARPT CLOUDY 79 77 94 N3 30.01S HILTON HEAD IS CLOUDY 77 77 100 N5 30.02F GEORGETOWN NOT AVBL WALTERBORO MOCLDY 73 N/A N/A CALM 30.04R ORANGEBURG CLOUDY 72 70 93 N3 30.04F BARNWELL FAIR 72 70 94 N3 30.06S AIKEN CLOUDY 68 68 100 N5 30.11S FOG MANNING CLOUDY 73 N/A N/A N7 30.03F KINGSTREE NOT AVBL COLUMBIA CLOUDY 73 68 84 N3 30.06S SUMTER CLOUDY 72 70 95 NE9 30.04F FLORENCE CLOUDY 71 69 93 NE8 30.06F MYRTLE BEACH CLOUDY 77 73 88 W6 30.03F N MYRTLE BEACH CLOUDY 76 73 91 NE5 30.03F $$ GAZ063-065-086>088-099>101-113>116-118-119-134-136>141-150-020600- ...GEORGIA... CITY SKY/WX TMP DP RH WIND PRES REMARKS SAVANNAH ARPT CLOUDY 75 73 94 N5 30.01F FOG HUNTER AAF LGT RAIN 77 75 94 N2 30.00R FORT STEWART LGT RAIN 75 72 88 N1 30.00S STATESBORO NOT AVBL SYLVANIA MOCLDY 74 74 98 N5 30.04F CLAXTON CLOUDY N/A N/A N/A E3 30.02S HAZE THOMSON CLOUDY 70 70 100 CALM 30.11F AUGUSTA-BUSH CLOUDY 70 66 87 N6 30.07R AUGUSTA-DANIEL CLOUDY 70 66 87 N6 30.08S SWAINSBORO CLOUDY 72 72 100 NE5 30.05S VIDALIA N/A 75 73 94 NE7 30.03S ALMA CLOUDY 74 73 97 E3 29.99F FOG WAYCROSS MOCLDY 78 77 95 CALM 29.99F JESUP FAIR 79 77 94 E3 30.00F FOG BRUNSWICK MOCLDY 77 73 88 CALM 30.00F SAINT SIMONS PTCLDY 83 75 77 S7 29.99S HX 90 $$ SCZ027-028-034-036>038-045-046-048>050-GAZ119-141-020600- ...LAKE AND SUPPLEMENTAL COASTAL OBSERVATIONS... STATION/POSITION TIME TEMP WIND PRES WAVE SWELL AIR SEA DIR/SP/G HT/PER HT/PER/DIR (UTC) (F) (DEG/KT/KT) (MB) (FT/S) (FT/S/D) UPR LAKE MARION NOT AVBL WINYAH BAY 0500 78 130/ 1 1017.0S LAKE MURRAY 0400 69 340/ 3/ 5 1017.9S ACE BASIN NERRS 0500 75 CALM 1016.0S FORT PULASKI 0500 77 340/ 5/ 6 1016.2F SAPELO ISLAND 0500 82 220/ 5 1016.0S $$ ANZ835-935-AMZ111-154-330-350-352-354-374-450-454-472-020600- ...C-MAN AND BUOY OBSERVATIONS... STATION/POSITION TIME TEMP WIND PRES WAVE SWELL AIR SEA DIR/SP/G HT/PER HT/PER/DIR (UTC) (F) (DEG/KT/KT) (MB) (FT/S) (FT/S/D) FOLLY BEACH CMAN 0500 80 90/ 4/ 6 1016.9F BUOY 41004 0500 83 82 180/ 10/ 12 1016.0F 3/ 7 3/ 7 BUOY 41008 0500 84 85 180/ 14/ 16 1015.5F 3/ 5 2/ 90/ 8 5E ST. MARYS GA 0500 85 N/A 4/ 4 FRYING PAN BUOY NOT AVBL BUOY 41025 0500 VRB 14/ 16 1019.1R 4/ 5 2/130/ 7 CAPE LOOKOUT NC 0500 79 150/ 10/ 12 1018.4R BUOY 41002 0359 81 81 150/ 17/ 21 1018.7 5/ 6 BUOY 41010 0500 83 84 120/ 14/ 17 1016.2F 3/ 7 2/ 90/ 7 BUOY 41012 NOT AVBL ST AUGUSTINE FL 0500 81 170/ 10/ 11 1016.2F CAPERS NEARSHORE 0400 80 330/ 4/ 6 N/A FRIPP NEARSHORE NOT AVBL $$

USA.gov is the U.S. government's official web portal to all federal, state and local government web resources and services.